Wind_Speed
12 9 11 21 13 14 14 8 7 8 4 4 3 1 10 10 6 7 10 12 12 13 12 10 10 11 11 12 13 13 12 11 11 10 11 11 13 13 14 14 15 17 17 16 15 16 16 16 16
10 19 19 20 18 22 14 6 8 10 7 3 4 7 13 12 16 14 11 12 11 16 12 11 11 11 13 13 13 13 12 11 11 12 14 14 13 13 12 11 12 15 17 18 16 15 16 15 16
10 22 22 17 16 17 10 9 13 9 6 4 8 13 15 14 16 19 15 18 15 16 10 11 10 12 13 13 14 12 12 11 12 12 13 14 13 13 11 11 12 13 15 16 16 16 16 13 15
8 15 18 23 16 15 16 14 14 11 11 13 12 14 14 15 19 18 17 18 17 14 10 11 11 12 11 12 13 12 12 11 11 11 12 11 11 10 9 12 13 12 13 14 14 15 14 13 14
6 5 20 14 10 15 15 26 18 18 19 15 16 16 14 16 17 19 13 15 14 11 10 10 11 12 11 11 12 11 11 11 11 10 11 9 8 8 10 11 9 9 12 11 11 11 11 12 11
11 14 17 12 9 17 14 18 19 18 20 16 19 18 16 16 15 16 11 9 9 10 9 10 10 11 9 9 10 10 10 9 9 10 9 8 7 7 8 9 9 10 11 9 10 10 9 10 9
16 12 18 13 7 18 18 19 23 19 19 17 17 19 18 15 13 16 12 7 8 7 7 7 8 9 7 6 7 8 9 10 9 9 8 7 6 6 6 8 6 6 8 7 8 8 8 8 8
9 5 8 10 11 10 11 15 18 21 20 19 16 14 13 12 11 10 15 7 7 5 6 5 6 6 5 5 7 8 8 8 8 8 6 5 4 4 4 5 5 6 7 6 5 6 5 8 6
12 11 11 13 8 11 13 14 17 17 15 15 18 13 13 12 10 9 11 8 7 7 7 5 5 7 5 5 8 9 9 9 8 7 5 4 3 3 3 6 3 4 5 4 4 2 2 6 4
15 16 16 14 8 6 7 14 6 8 12 13 12 11 10 10 7 6 9 11 7 6 5 6 6 6 6 5 6 8 8 7 7 7 5 4 4 2 1 3 1 3 5 3 2 2 4 3 5
13 14 13 14 11 9 8 13 15 16 15 10 10 10 8 7 6 6 4 4 8 5 5 5 5 5 5 5 6 6 6 7 7 6 5 3 5 5 4 3 2 1 4 4 1 1 3 5 3
13 13 14 15 14 12 2 5 11 9 11 10 10 6 5 4 4 3 2 3 4 7 5 3 3 4 3 4 7 6 6 6 6 7 7 5 6 7 11 11 7 3 3 6 5 2 2 4 5
17 10 11 10 8 9 9 7 11 13 13 13 10 6 2 1 1 2 2 4 4 4 5 6 4 1 4 4 5 8 8 8 9 10 9 8 7 8 8 8 9 9 5 5 5 6 3 5 7
9 6 11 13 12 6 1 7 5 9 8 8 8 8 5 2 1 1 2 3 5 6 5 6 7 7 8 7 9 9 10 11 12 12 13 12 11 10 11 8 6 9 10 9 7 7 9 12 11
8 7 3 3 6 6 4 4 8 6 9 9 9 8 8 6 4 3 2 2 3 5 6 7 8 8 8 11 10 10 12 13 14 15 15 13 15 15 15 13 11 9 10 11 12 8 7 10 14
14 7 4 6 10 8 5 10 7 5 7 10 9 9 8 8 9 6 4 4 5 7 7 8 11 10 13 14 13 13 15 15 15 18 18 17 17 17 16 13 13 13 14 15 16 19 13 7 11
11 11 7 7 7 3 7 9 12 6 6 10 9 10 13 13 9 9 9 9 6 8 8 10 13 15 15 16 17 18 18 18 19 20 21 20 19 22 20 16 13 19 17 16 17 20 18 21 15
13 22 13 11 8 10 9 5 6 6 9 4 8 6 10 14 14 12 13 11 12 13 12 11 11 16 16 18 21 21 22 22 23 22 24 23 22 23 25 24 20 19 19 20 21 19 19 18 20
11 8 10 15 16 18 13 18 17 17 13 6 5 9 8 7 7 8 9 10 13 15 14 13 11 15 18 19 20 21 23 24 24 26 25 27 25 26 29 29 24 23 23 23 21 21 25 19 19
14 11 13 17 11 20 23 18 25 15 22 17 18 18 13 14 7 13 11 12 13 15 20 19 21 18 18 20 21 22 23 24 25 27 27 26 27 29 31 33 30 27 27 28 25 22 21 26 29
13 8 7 8 15 16 21 15 24 16 16 24 27 27 24 21 17 11 14 11 24 20 24 22 23 24 20 22 22 24 24 26 27 30 30 29 30 33 36 37 36 29 32 25 30 25 25 29 33
10 8 3 11 8 15 18 21 21 19 13 26 29 32 35 31 30 26 21 21 16 19 20 20 20 16 25 33 28 26 27 30 32 32 32 31 32 35 40 38 43 35 28 31 32 31 30 34 33
18 10 12 6 10 1 12 18 20 16 17 20 24 23 24 29 33 30 26 24 26 21 17 29 19 25 20 34 31 28 29 32 36 34 35 36 37 39 42 39 41 43 33 35 35 34 35 38 36
13 20 15 9 12 14 19 12 22 23 20 17 18 17 20 18 28 31 32 33 34 38 32 22 20 17 27 31 30 26 31 34 35 38 37 39 43 41 42 41 44 44 39 38 37 38 36 37 35
3 11 13 10 20 16 8 5 18 23 27 13 15 13 12 14 18 30 32 33 33 32 30 17 31 29 33 27 37 29 33 29 34 33 30 29 47 48 44 42 46 51 53 46 40 36 36 36 36
10 4 6 7 13 15 10 11 20 28 34 32 27 26 27 28 25 29 36 39 39 38 36 24 34 27 37 34 39 26 26 32 33 43 45 40 49 34 38 30 40 44 46 50 41 40 38 42 43
3 5 5 8 9 9 13 13 21 28 31 36 35 27 31 29 27 24 30 37 40 41 44 40 35 35 40 33 34 33 30 32 30 27 30 29 24 42 31 32 42 45 44 35 42 42 44 38 39
9 6 6 4 5 7 4 13 20 26 33 38 42 31 26 24 25 30 35 35 37 41 44 47 46 41 39 35 38 40 37 30 24 30 29 23 26 23 29 23 15 22 32 34 36 36 14 12 12
14 20 17 10 5 8 10 12 20 26 35 39 36 31 29 34 34 35 37 39 42 48 48 47 50 48 43 41 44 46 41 31 23 27 19 16 17 12 18 19 17 12 22 14 6 3 3 7 10
15 22 20 14 10 17 20 17 19 26 35 40 38 36 35 35 38 40 40 43 46 46 49 53 53 51 44 43 43 39 37 39 25 28 22 15 16 13 8 4 6 11 13 11 14 17 16 19 17
Wind_Direction
68 31 39 93 29 69 55 37 29 59 16 322 339 330 161 132 136 145 132 140 137 130 133 132 129 129 123 120 125 134 133 117 115 107 115 119 105 96 91 87 86 89 82 87 88 86 86 87 86
82 85 79 75 77 42 95 16 18 25 14 357 29 80 114 124 88 114 125 123 141 151 140 142 134 135 127 128 130 132 131 128 119 117 122 113 102 94 96 98 96 91 87 86 89 94 92 91 91
77 98 77 58 71 32 22 24 18 20 40 27 91 86 95 100 121 120 115 114 118 146 137 133 140 142 137 138 136 136 134 131 128 125 118 111 106 105 98 109 102 104 101 96 94 100 101 102 94
101 80 80 85 91 13 29 32 34 46 61 90 90 97 109 113 124 127 122 124 133 144 136 139 149 148 148 144 141 142 139 134 137 130 117 111 111 108 94 106 104 116 121 112 98 98 106 101 98
6 131 87 43 32 40 32 31 12 59 60 85 104 103 114 115 122 117 136 132 144 143 142 151 155 159 155 148 148 150 146 140 143 139 127 116 111 107 101 98 102 111 124 114 111 98 101 97 98
92 83 99 61 10 44 58 9 36 48 57 80 98 100 110 118 122 122 133 135 137 138 152 162 158 161 158 153 153 154 144 142 152 144 132 124 112 113 101 86 108 111 115 119 113 105 92 93 95
127 98 119 93 47 26 38 22 50 58 58 68 93 99 110 122 136 126 136 129 138 143 157 165 161 158 159 149 143 147 151 162 155 150 138 122 111 101 97 97 112 112 114 122 114 100 90 81 79
155 19 76 98 46 22 36 42 41 60 67 65 66 84 101 118 133 133 132 155 132 142 167 170 176 149 151 131 142 151 155 157 164 162 140 127 125 118 102 112 123 125 119 120 109 103 94 90 90
122 109 66 79 26 38 48 50 51 50 64 67 66 65 90 98 115 120 125 148 147 156 167 162 171 160 161 142 150 150 155 169 173 165 155 132 159 163 111 139 118 128 128 123 146 158 73 57 41
72 82 51 59 40 71 9 40 40 42 67 84 81 71 76 98 103 120 134 139 160 162 150 160 162 176 161 138 146 154 168 185 178 173 165 192 208 211 237 205 244 168 161 159 138 147 90 78 282
69 37 78 68 38 48 342 42 46 48 36 62 88 85 79 88 98 112 112 126 150 180 160 169 161 178 171 152 161 176 187 194 190 197 212 259 255 270 273 266 241 123 170 207 225 191 103 214 254
101 72 54 55 55 70 41 79 25 45 59 54 55 67 95 92 104 115 134 187 180 168 180 210 176 207 202 188 173 186 213 215 216 244 268 302 280 292 285 269 247 225 187 213 244 225 215 234 249
92 88 70 65 99 51 43 27 39 36 27 34 28 38 49 134 111 131 151 170 194 215 185 241 202 214 256 230 219 203 218 236 250 260 268 280 277 285 304 313 242 236 231 232 260 276 219 289 276
122 152 101 112 175 81 111 38 59 24 70 60 18 22 23 346 283 226 165 172 202 215 229 237 250 207 228 225 233 226 235 244 255 267 283 294 282 270 284 301 264 257 266 266 265 297 300 292 313
14 124 157 121 140 211 165 277 307 292 23 42 41 359 9 17 342 302 281 239 230 230 257 262 253 260 254 256 251 237 237 253 263 268 272 269 273 276 282 270 267 262 267 283 294 286 285 285 315
343 348 71 257 324 250 299 65 160 317 328 14 22 22 7 9 1 345 320 299 283 275 269 276 281 276 277 270 268 265 262 255 254 262 268 273 273 276 277 272 252 253 271 282 300 298 297 289 301
26 25 38 35 86 339 288 27 355 99 30 352 351 34 20 8 356 354 346 338 320 299 290 278 282 278 278 277 279 275 268 266 265 268 270 267 267 272 272 270 256 257 272 291 289 291 301 308 298
68 49 59 80 88 63 28 262 341 17 40 147 32 31 41 17 348 1 4 1 343 327 322 302 289 287 285 279 277 277 276 274 274 269 271 271 271 270 269 270 267 271 281 286 281 289 295 289 295
51 56 61 63 52 27 32 6 5 349 313 346 81 7 4 352 357 355 28 12 354 331 325 321 311 294 289 284 284 283 280 279 277 275 274 278 276 273 275 275 270 271 273 274 273 281 281 286 287
48 49 49 23 13 14 5 346 345 359 347 24 16 8 1 349 354 318 333 324 325 321 316 321 321 317 306 289 288 286 284 282 278 276 275 273 279 277 274 274 278 277 276 273 269 277 269 273 282
33 48 70 71 42 33 25 19 4 9 6 2 25 7 358 358 6 344 350 284 316 302 311 311 319 310 315 313 305 288 280 280 275 271 269 269 269 271 274 276 272 273 286 270 274 270 265 262 270
73 52 122 87 22 357 17 17 8 3 11 7 17 7 2 350 359 13 8 345 332 292 309 304 309 281 299 301 298 286 280 273 268 269 269 266 265 266 267 270 266 267 266 267 267 269 272 272 272
91 57 97 93 248 244 30 0 1 18 9 18 16 7 359 348 345 350 350 343 324 341 342 312 294 302 316 310 288 289 284 278 281 276 273 271 263 260 265 266 267 269 267 268 270 272 272 272 274
97 74 30 297 348 25 30 338 341 344 1 13 14 3 346 343 340 336 337 332 326 335 347 321 317 304 315 306 297 296 294 290 287 285 276 272 263 258 261 264 268 269 270 267 268 269 270 271 273
198 95 11 50 47 32 40 329 317 334 329 355 349 342 1 12 352 330 331 328 329 346 326 285 334 309 308 295 301 305 298 278 303 282 292 279 278 256 254 257 263 263 259 263 269 270 268 266 268
147 58 346 32 48 8 343 315 328 321 322 328 344 352 357 355 0 332 327 329 328 320 321 322 312 310 302 294 296 298 301 309 305 297 305 311 302 272 274 268 276 273 272 265 256 272 272 274 274
238 348 80 119 96 80 10 331 317 312 319 319 324 347 348 346 335 327 322 323 318 314 313 309 310 303 294 290 292 297 297 300 297 306 319 309 288 298 279 295 277 275 262 275 251 273 275 283 281
331 318 288 157 169 204 234 336 314 313 311 307 299 318 337 337 338 329 326 319 312 308 308 308 305 301 299 293 288 287 288 291 283 307 310 343 352 328 313 300 308 293 276 267 266 267 279 304 271
309 320 317 301 225 260 268 282 299 304 296 292 310 332 342 337 336 329 325 321 316 314 311 304 300 299 297 291 283 282 278 276 275 295 296 327 342 323 274 309 318 321 353 12 78 104 259 291 264
303 297 313 283 250 237 247 255 282 293 290 299 317 331 334 330 328 327 326 318 311 306 301 299 294 290 288 283 280 277 267 270 273 279 268 294 309 320 336 41 334 322 329 319 272 251 239 258 260
Height
5911 5908 5908 5908 5915 5908 5905 5906 5904 5902 5901 5897 5899 5901 5901 5899 5906 5911 5907 5907 5909 5912 5913 5914 5915 5916 5916 5916 5916 5918 5920 5920 5921 5920 5920 5920 5920 5920 5920 5920 5920 5920 5919 5919 5918 5917 5914 5912 5911
5910 5910 5911 5909 5909 5907 5906 5909 5905 5902 5899 5898 5901 5903 5902 5901 5906 5910 5908 5907 5910 5913 5914 5916 5917 5917 5917 5918 5918 5920 5921 5922 5922 5922 5922 5922 5923 5923 5922 5923 5923 5923 5923 5922 5920 5919 5918 5916 5915
5913 5912 5913 5912 5911 5909 5911 5910 5910 5904 5900 5897 5900 5900 5901 5903 5906 5909 5908 5909 5911 5913 5916 5917 5918 5918 5918 5919 5920 5922 5922 5923 5923 5925 5925 5925 5926 5926 5925 5925 5926 5925 5925 5924 5921 5921 5920 5919 5918
5917 5916 5913 5917 5910 5914 5912 5911 5909 5905 5901 5901 5900 5902 5905 5907 5908 5910 5910 5912 5913 5915 5917 5918 5919 5920 5921 5921 5923 5923 5923 5924 5926 5927 5928 5928 5927 5927 5928 5928 5927 5926 5924 5924 5924 5923 5922 5921 5922
5919 5918 5918 5921 5922 5917 5910 5909 5909 5906 5904 5902 5904 5905 5907 5909 5909 5913 5913 5914 5915 5917 5918 5920 5921 5922 5923 5924 5924 5924 5925 5926 5928 5930 5930 5930 5929 5930 5930 5931 5929 5927 5926 5926 5926 5926 5925 5924 5925
5921 5919 5918 5920 5922 5918 5916 5913 5911 5908 5907 5906 5906 5907 5909 5911 5912 5915 5917 5916 5917 5919 5920 5922 5923 5924 5925 5925 5926 5926 5928 5930 5931 5932 5932 5932 5932 5933 5934 5933 5931 5930 5930 5928 5928 5929 5929 5929 5927
5921 5921 5922 5920 5919 5920 5918 5915 5913 5912 5910 5910 5911 5911 5913 5914 5914 5919 5920 5919 5920 5921 5922 5923 5925 5926 5927 5927 5928 5929 5931 5932 5933 5934 5935 5935 5935 5935 5936 5935 5933 5932 5933 5931 5931 5932 5932 5931 5930
5926 5926 5923 5919 5923 5921 5920 5918 5915 5913 5912 5912 5913 5914 5914 5914 5916 5917 5921 5922 5923 5924 5924 5926 5927 5928 5928 5929 5930 5931 5933 5934 5935 5936 5937 5937 5937 5936 5936 5936 5934 5934 5936 5935 5934 5934 5933 5934 5934
5924 5925 5922 5921 5925 5924 5921 5920 5919 5917 5915 5914 5914 5916 5916 5916 5917 5918 5922 5924 5924 5924 5925 5927 5928 5928 5929 5930 5931 5932 5934 5935 5936 5937 5938 5939 5938 5937 5936 5937 5935 5937 5938 5937 5937 5936 5936 5937 5937
5925 5925 5924 5921 5927 5918 5922 5924 5921 5922 5920 5918 5918 5918 5919 5919 5920 5920 5920 5924 5925 5925 5926 5927 5928 5930 5930 5932 5933 5934 5935 5936 5938 5938 5939 5938 5938 5937 5938 5937 5936 5938 5939 5937 5938 5938 5940 5939 5935
5927 5928 5925 5925 5927 5926 5926 5924 5923 5923 5923 5921 5920 5920 5921 5921 5921 5921 5922 5923 5926 5926 5927 5927 5929 5931 5931 5933 5934 5936 5937 5937 5938 5939 5940 5940 5939 5939 5939 5938 5938 5939 5939 5937 5938 5939 5941 5939 5938
5928 5931 5930 5928 5929 5929 5928 5926 5924 5924 5923 5922 5922 5922 5923 5923 5922 5922 5923 5924 5925 5928 5929 5929 5931 5932 5933 5934 5934 5936 5937 5938 5939 5940 5940 5941 5940 5940 5939 5939 5938 5939 5939 5938 5937 5938 5938 5937 5938
5929 5929 5928 5929 5934 5931 5929 5927 5927 5924 5923 5923 5924 5923 5923 5924 5924 5923 5924 5924 5925 5927 5930 5929 5931 5932 5932 5934 5935 5937 5937 5937 5939 5939 5940 5940 5941 5940 5940 5938 5937 5938 5939 5940 5939 5939 5941 5935 5934
5930 5930 5929 5927 5930 5929 5928 5928 5927 5925 5923 5923 5925 5925 5925 5926 5926 5926 5926 5926 5927 5928 5929 5931 5931 5934 5932 5933 5934 5936 5936 5936 5937 5938 5939 5940 5940 5940 5940 5939 5938 5938 5938 5939 5941 5942 5938 5934 5936
5932 5929 5928 5927 5929 5927 5929 5932 5930 5927 5925 5924 5925 5927 5927 5927 5927 5927 5928 5929 5929 5930 5929 5929 5930 5931 5932 5932 5933 5934 5935 5935 5936 5937 5936 5937 5937 5938 5937 5938 5938 5938 5936 5936 5937 5939 5937 5933 5930
5927 5926 5929 5931 5929 5929 5932 5932 5930 5929 5928 5926 5925 5928 5927 5927 5927 5928 5928 5928 5930 5930 5930 5929 5928 5930 5930 5930 5930 5931 5932 5933 5934 5934 5935 5935 5935 5935 5935 5935 5936 5936 5935 5935 5934 5932 5935 5935 5932
5928 5928 5930 5928 5930 5930 5930 5928 5929 5929 5930 5929 5928 5925 5925 5925 5928 5928 5928 5928 5929 5929 5930 5929 5928 5928 5928 5928 5928 5928 5928 5929 5930 5931 5932 5933 5934 5934 5933 5934 5935 5934 5935 5936 5932 5929 5932 5929 5929
5929 5932 5934 5932 5930 5927 5925 5921 5923 5917 5925 5928 5932 5929 5926 5928 5928 5929 5930 5929 5929 5929 5928 5927 5927 5925 5926 5926 5926 5926 5925 5926 5927 5928 5927 5929 5930 5930 5929 5930 5933 5933 5933 5931 5930 5931 5928 5925 5925
5934 5933 5936 5931 5927 5928 5925 5926 5926 5927 5931 5927 5928 5929 5928 5925 5931 5928 5928 5929 5927 5926 5926 5924 5924 5922 5923 5922 5921 5922 5922 5923 5923 5923 5925 5924 5926 5926 5924 5924 5927 5928 5928 5926 5924 5926 5927 5923 5923
5934 5933 5933 5932 5930 5929 5929 5923 5926 5927 5926 5928 5926 5926 5928 5928 5930 5930 5927 5927 5927 5923 5922 5924 5923 5922 5921 5920 5919 5918 5917 5917 5917 5917 5920 5921 5921 5920 5919 5916 5921 5924 5924 5923 5924 5920 5923 5921 5918
5935 5936 5935 5935 5935 5933 5935 5932 5926 5926 5925 5923 5920 5921 5922 5922 5928 5927 5922 5923 5926 5925 5919 5921 5921 5919 5919 5917 5916 5913 5912 5910 5910 5909 5912 5914 5915 5914 5910 5909 5910 5915 5917 5917 5917 5917 5915 5918 5917
5937 5937 5937 5936 5936 5934 5936 5934 5933 5931 5930 5926 5919 5919 5912 5916 5918 5919 5917 5916 5918 5921 5918 5916 5914 5912 5913 5912 5909 5907 5904 5903 5900 5900 5903 5904 5905 5904 5902 5903 5904 5908 5906 5911 5911 5910 5908 5911 5912
5940 5939 5938 5938 5933 5934 5932 5932 5934 5935 5934 5930 5929 5929 5928 5921 5916 5916 5917 5917 5914 5919 5919 5914 5909 5906 5905 5908 5904 5899 5897 5894 5896 5895 5897 5898 5894 5893 5890 5891 5891 5896 5897 5900 5901 5899 5900 5901 5902
5940 5938 5938 5931 5931 5931 5929 5932 5930 5930 5931 5931 5933 5932 5930 5928 5918 5913 5912 5911 5906 5907 5912 5905 5899 5901 5898 5899 5894 5890 5889 5889 5888 5886 5885 5888 5885 5881 5879 5883 5881 5878 5880 5885 5888 5889 5891 5892 5891
5938 5937 5936 5931 5934 5936 5934 5932 5931 5929 5928 5931 5932 5930 5930 5927 5922 5912 5910 5907 5899 5901 5900 5902 5900 5896 5891 5890 5885 5885 5882 5877 5877 5875 5874 5873 5873 5868 5867 5867 5868 5867 5868 5874 5877 5879 5880 5879 5880
5937 5936 5933 5935 5935 5937 5935 5932 5931 5926 5924 5924 5921 5920 5920 5917 5918 5911 5904 5898 5893 5893 5895 5900 5898 5890 5889 5883 5877 5876 5876 5875 5872 5863 5863 5861 5860 5859 5859 5862 5863 5861 5863 5862 5865 5866 5866 5867 5867
5938 5937 5936 5936 5937 5939 5936 5934 5930 5926 5925 5922 5919 5918 5916 5916 5914 5911 5906 5898 5895 5890 5885 5886 5884 5883 5881 5876 5872 5867 5869 5872 5867 5864 5859 5855 5855 5853 5850 5852 5853 5854 5854 5853 5857 5857 5858 5854 5854
5936 5936 5936 5934 5935 5935 5937 5935 5931 5927 5924 5920 5917 5917 5917 5915 5911 5905 5901 5897 5890 5885 5881 5874 5872 5871 5865 5865 5862 5861 5862 5863 5860 5857 5854 5850 5846 5845 5848 5849 5843 5843 5843 5844 5847 5848 5849 5848 5847
5936 5933 5933 5934 5934 5934 5934 5934 5929 5926 5921 5916 5911 5911 5910 5906 5903 5900 5895 5890 5883 5872 5868 5863 5858 5856 5854 5852 5853 5851 5852 5851 5851 5851 5850 5850 5850 5848 5844 5844 5840 5840 5841 5841 5840 5842 5844 5843 5843
5935 5933 5930 5930 5932 5931 5930 5931 5927 5921 5916 5909 5904 5904 5904 5902 5898 5893 5888 5880 5875 5871 5864 5854 5849 5846 5846 5842 5839 5841 5840 5840 5840 5844 5842 5844 5845 5843 5837 5835 5837 5836 5837 5839 5839 5838 5835 5837 5837